Time,TemperatureF,DewpointF,PressureIn,WindDirection,WindDirectionDegrees,WindSpeedMPH,WindSpeedGustMPH,Humidity,HourlyPrecipIn,Conditions,Clouds,dailyrainin,SoftwareType,DateUTC
2013-02-26 00:01:00,31.0,26.0,29.95,ENE,72,7.0,19.0,82,0.00,,,0.00,,2013-02-26 05:01:00,
2013-02-26 00:12:00,31.0,26.0,29.94,ESE,104,4.0,17.0,82,0.00,,,0.00,,2013-02-26 05:12:00,
2013-02-26 00:22:00,31.0,26.0,29.94,ESE,104,4.0,17.0,82,0.00,,,0.00,,2013-02-26 05:22:00,
2013-02-26 00:32:00,31.0,26.0,29.94,ENE,74,11.0,14.0,81,0.00,,,0.00,,2013-02-26 05:32:00,
2013-02-26 00:43:00,31.0,26.0,29.94,ENE,74,11.0,14.0,81,0.00,,,0.00,,2013-02-26 05:43:00,
2013-02-26 00:52:00,31.0,26.0,29.93,East,80,3.0,16.0,81,0.00,,,0.00,,2013-02-26 05:52:00,
2013-02-26 01:02:00,31.0,26.0,29.93,ENE,76,8.0,14.0,81,0.00,,,0.00,,2013-02-26 06:02:00,
2013-02-26 01:11:00,31.0,26.0,29.93,ENE,76,8.0,14.0,81,0.00,,,0.00,,2013-02-26 06:11:00,
2013-02-26 01:21:00,30.0,25.0,29.92,ENE,74,7.0,15.0,81,0.00,,,0.00,,2013-02-26 06:21:00,
2013-02-26 01:32:00,30.0,25.0,29.92,ENE,71,10.0,14.0,82,0.00,,,0.00,,2013-02-26 06:32:00,
2013-02-26 01:42:00,30.0,25.0,29.92,ENE,71,10.0,14.0,82,0.00,,,0.00,,2013-02-26 06:42:00,
2013-02-26 01:52:00,30.0,25.0,29.92,East,100,4.0,14.0,82,0.00,,,0.00,,2013-02-26 06:52:00,
2013-02-26 02:01:00,30.0,25.0,29.91,NE,56,7.0,14.0,82,0.00,,,0.00,,2013-02-26 07:01:00,
2013-02-26 02:11:00,30.0,25.0,29.91,NE,56,7.0,14.0,82,0.00,,,0.00,,2013-02-26 07:11:00,
2013-02-26 02:22:00,30.0,25.0,29.91,East,88,6.0,13.0,82,0.00,,,0.00,,2013-02-26 07:22:00,
2013-02-26 02:32:00,30.0,25.0,29.90,ENE,76,8.0,18.0,82,0.00,,,0.00,,2013-02-26 07:32:00,
2013-02-26 02:42:00,30.0,25.0,29.90,ENE,76,8.0,18.0,82,0.00,,,0.00,,2013-02-26 07:42:00,
2013-02-26 02:52:00,30.0,25.0,29.90,ENE,78,7.0,18.0,82,0.00,,,0.00,,2013-02-26 07:52:00,
2013-02-26 03:02:00,30.0,25.0,29.89,East,91,4.0,16.0,83,0.00,,,0.00,,2013-02-26 08:02:00,
2013-02-26 03:11:00,30.0,25.0,29.85,NE,49,6.0,18.0,82,0.00,,,0.00,,2013-02-26 08:11:00,
2013-02-26 03:21:00,30.0,25.0,29.85,NE,49,6.0,18.0,82,0.00,,,0.00,,2013-02-26 08:21:00,
2013-02-26 03:32:00,30.0,25.0,29.85,East,91,9.0,19.0,82,0.00,,,0.00,,2013-02-26 08:32:00,
2013-02-26 03:42:00,30.0,25.0,29.85,East,91,9.0,19.0,82,0.00,,,0.00,,2013-02-26 08:42:00,
2013-02-26 03:52:00,30.0,25.0,29.83,ENE,69,4.0,21.0,82,0.00,,,0.00,,2013-02-26 08:52:00,
2013-02-26 04:02:00,30.0,25.0,29.81,East,89,5.0,21.0,82,0.00,,,0.00,,2013-02-26 09:02:00,
2013-02-26 04:11:00,30.0,25.0,29.81,East,89,5.0,21.0,82,0.00,,,0.00,,2013-02-26 09:11:00,
2013-02-26 04:21:00,30.0,25.0,29.81,ENE,77,8.0,17.0,82,0.00,,,0.00,,2013-02-26 09:21:00,
2013-02-26 04:32:00,31.0,26.0,29.81,ESE,111,11.0,18.0,81,0.00,,,0.00,,2013-02-26 09:32:00,
2013-02-26 04:43:00,31.0,26.0,29.81,ESE,111,11.0,18.0,81,0.00,,,0.00,,2013-02-26 09:43:00,
2013-02-26 04:52:00,31.0,26.0,29.79,ENE,69,8.0,18.0,81,0.00,,,0.00,,2013-02-26 09:52:00,
2013-02-26 05:01:00,31.0,26.0,29.79,East,83,7.0,19.0,80,0.00,,,0.00,,2013-02-26 10:01:00,
2013-02-26 05:11:00,31.0,26.0,29.79,East,83,7.0,19.0,80,0.00,,,0.00,,2013-02-26 10:11:00,
2013-02-26 05:21:00,31.0,26.0,29.78,ENE,66,11.0,21.0,80,0.00,,,0.00,,2013-02-26 10:21:00,
2013-02-26 05:31:00,32.0,26.0,29.77,ENE,65,10.0,19.0,79,0.00,,,0.00,,2013-02-26 10:31:00,
2013-02-26 05:42:00,32.0,26.0,29.77,ENE,65,10.0,19.0,79,0.00,,,0.00,,2013-02-26 10:42:00,
2013-02-26 05:52:00,32.0,26.0,29.75,ENE,78,13.0,18.0,79,0.00,,,0.00,,2013-02-26 10:52:00,
2013-02-26 06:01:00,32.0,26.0,29.72,ENE,69,10.0,23.0,78,0.00,,,0.00,,2013-02-26 11:01:00,
2013-02-26 06:12:00,32.0,26.0,29.72,ENE,69,10.0,23.0,78,0.00,,,0.00,,2013-02-26 11:12:00,
2013-02-26 06:22:00,31.0,25.0,29.71,ENE,70,11.0,23.0,79,0.00,,,0.00,,2013-02-26 11:22:00,
2013-02-26 06:32:00,31.0,25.0,29.72,ENE,63,9.0,23.0,79,0.00,,,0.00,,2013-02-26 11:32:00,
2013-02-26 06:42:00,31.0,25.0,29.72,ENE,63,9.0,23.0,79,0.00,,,0.00,,2013-02-26 11:42:00,
2013-02-26 06:53:00,31.0,25.0,29.72,ENE,63,5.0,23.0,79,0.00,,,0.00,,2013-02-26 11:53:00,
2013-02-26 07:02:00,31.0,26.0,29.72,East,98,11.0,23.0,80,0.00,,,0.00,,2013-02-26 12:02:00,
2013-02-26 07:11:00,31.0,26.0,29.72,East,98,11.0,23.0,80,0.00,,,0.00,,2013-02-26 12:11:00,
2013-02-26 07:22:00,31.0,25.0,29.72,East,88,9.0,21.0,79,0.00,,,0.00,,2013-02-26 12:22:00,
2013-02-26 07:32:00,31.0,25.0,29.73,East,97,4.0,24.0,79,0.00,,,0.00,,2013-02-26 12:32:00,
2013-02-26 07:42:00,31.0,25.0,29.73,East,97,4.0,24.0,79,0.00,,,0.00,,2013-02-26 12:42:00,
2013-02-26 07:53:00,31.0,25.0,29.74,East,85,10.0,21.0,79,0.00,,,0.00,,2013-02-26 12:53:00,
2013-02-26 08:02:00,31.0,26.0,29.74,East,95,9.0,20.0,80,0.00,,,0.00,,2013-02-26 13:02:00,
2013-02-26 08:11:00,31.0,26.0,29.74,East,95,9.0,20.0,80,0.00,,,0.00,,2013-02-26 13:11:00,
2013-02-26 08:22:00,31.0,26.0,29.72,ENE,68,9.0,22.0,80,0.00,,,0.00,,2013-02-26 13:22:00,
2013-02-26 08:32:00,31.0,26.0,29.71,ENE,77,10.0,19.0,83,0.00,,,0.00,,2013-02-26 13:32:00,
2013-02-26 08:42:00,31.0,26.0,29.71,ENE,77,10.0,19.0,83,0.00,,,0.00,,2013-02-26 13:42:00,
2013-02-26 08:52:00,31.0,27.0,29.71,ENE,75,10.0,23.0,85,0.00,,,0.00,,2013-02-26 13:52:00,
2013-02-26 09:01:00,31.0,28.0,29.68,ENE,71,10.0,21.0,87,0.00,,,0.00,,2013-02-26 14:01:00,
2013-02-26 09:11:00,31.0,28.0,29.68,ENE,71,10.0,21.0,87,0.00,,,0.00,,2013-02-26 14:11:00,
2013-02-26 09:22:00,31.0,28.0,29.68,ENE,71,10.0,21.0,87,0.00,,,0.00,,2013-02-26 14:22:00,
2013-02-26 09:32:00,31.0,28.0,29.67,East,99,12.0,18.0,89,0.02,,,0.02,,2013-02-26 14:32:00,
2013-02-26 09:42:00,31.0,28.0,29.67,East,99,12.0,18.0,89,0.02,,,0.02,,2013-02-26 14:42:00,
2013-02-26 09:52:00,31.0,28.0,29.65,NE,44,13.0,18.0,90,0.03,,,0.03,,2013-02-26 14:52:00,
2013-02-26 10:02:00,31.0,28.0,29.63,ENE,74,5.0,23.0,90,0.04,,,0.04,,2013-02-26 15:02:00,
2013-02-26 10:11:00,31.0,28.0,29.63,ENE,74,5.0,23.0,90,0.04,,,0.04,,2013-02-26 15:11:00,
2013-02-26 10:22:00,31.0,28.0,29.62,East,82,0.0,0.0,90,0.06,,,0.07,,2013-02-26 15:22:00,
2013-02-26 10:32:00,31.0,29.0,29.60,ENE,70,0.0,0.0,91,0.07,,,0.09,,2013-02-26 15:32:00,
2013-02-26 10:42:00,31.0,29.0,29.60,ENE,70,0.0,0.0,91,0.07,,,0.09,,2013-02-26 15:42:00,
2013-02-26 10:52:00,31.0,29.0,29.57,ENE,78,0.0,0.0,91,0.06,,,0.09,,2013-02-26 15:52:00,
2013-02-26 11:02:00,31.0,29.0,29.56,ENE,75,0.0,0.0,92,0.07,,,0.11,,2013-02-26 16:02:00,
2013-02-26 11:11:00,31.0,29.0,29.56,ENE,75,0.0,0.0,92,0.07,,,0.11,,2013-02-26 16:11:00,
2013-02-26 11:22:00,32.0,30.0,29.55,East,95,0.0,0.0,92,0.04,,,0.11,,2013-02-26 16:22:00,
2013-02-26 11:32:00,32.0,30.0,29.55,East,96,0.0,0.0,92,0.03,,,0.12,,2013-02-26 16:32:00,
2013-02-26 11:42:00,32.0,30.0,29.55,East,96,0.0,0.0,92,0.03,,,0.12,,2013-02-26 16:42:00,
2013-02-26 11:52:00,32.0,30.0,29.53,NE,40,0.0,0.0,92,0.04,,,0.13,,2013-02-26 16:52:00,
2013-02-26 12:01:00,32.0,30.0,29.55,East,82,0.0,0.0,93,0.04,,,0.15,,2013-02-26 17:01:00,
2013-02-26 12:11:00,32.0,30.0,29.55,SE,128,0.0,0.0,93,0.10,,,0.21,,2013-02-26 17:11:00,
2013-02-26 12:22:00,32.0,30.0,29.55,SE,128,0.0,0.0,93,0.10,,,0.21,,2013-02-26 17:22:00,
2013-02-26 12:32:00,32.0,30.0,29.54,SE,127,0.0,0.0,93,0.16,,,0.28,,2013-02-26 17:32:00,
2013-02-26 12:42:00,32.0,30.0,29.54,SE,127,0.0,0.0,93,0.16,,,0.28,,2013-02-26 17:42:00,
2013-02-26 12:52:00,32.0,30.0,29.53,East,90,0.0,0.0,94,0.18,,,0.31,,2013-02-26 17:52:00,
2013-02-26 13:02:00,32.0,30.0,29.52,ESE,107,0.0,0.0,94,0.20,,,0.35,,2013-02-26 18:02:00,
2013-02-26 13:12:00,32.0,30.0,29.52,ESE,107,0.0,0.0,94,0.20,,,0.35,,2013-02-26 18:12:00,
2013-02-26 13:21:00,32.0,30.0,29.52,ESE,107,0.0,0.0,94,0.20,,,0.35,,2013-02-26 18:21:00,
2013-02-26 13:32:00,32.0,30.0,29.52,ESE,107,0.0,0.0,94,0.20,,,0.35,,2013-02-26 18:32:00,
2013-02-26 13:42:00,32.0,30.0,29.52,ESE,107,0.0,0.0,94,0.20,,,0.35,,2013-02-26 18:42:00,
2013-02-26 13:53:00,32.0,31.0,29.49,ENE,72,0.0,0.0,95,0.12,,,0.43,,2013-02-26 18:53:00,
2013-02-26 14:02:00,32.0,31.0,29.49,ENE,72,0.0,0.0,95,0.12,,,0.43,,2013-02-26 19:02:00,
2013-02-26 14:11:00,32.0,31.0,29.49,ENE,72,0.0,0.0,95,0.12,,,0.43,,2013-02-26 19:11:00,
2013-02-26 14:22:00,32.0,31.0,29.46,ENE,78,0.0,0.0,95,0.07,,,0.45,,2013-02-26 19:22:00,
2013-02-26 14:32:00,32.0,31.0,29.46,ENE,78,0.0,0.0,95,0.07,,,0.45,,2013-02-26 19:32:00,
2013-02-26 14:42:00,32.0,31.0,29.46,ENE,78,0.0,0.0,95,0.07,,,0.45,,2013-02-26 19:42:00,
2013-02-26 14:52:00,32.0,31.0,29.45,ENE,61,0.0,0.0,95,0.04,,,0.47,,2013-02-26 19:52:00,
2013-02-26 15:01:00,32.0,31.0,29.44,East,82,0.0,0.0,95,0.05,,,0.48,,2013-02-26 20:01:00,
2013-02-26 15:11:00,32.0,31.0,29.44,East,82,0.0,0.0,95,0.05,,,0.48,,2013-02-26 20:11:00,
2013-02-26 15:22:00,32.0,31.0,29.44,ENE,64,0.0,0.0,95,0.03,,,0.48,,2013-02-26 20:22:00,
2013-02-26 15:32:00,32.0,31.0,29.44,East,97,0.0,0.0,95,0.03,,,0.49,,2013-02-26 20:32:00,
2013-02-26 15:41:00,32.0,31.0,29.44,East,97,0.0,0.0,95,0.03,,,0.49,,2013-02-26 20:41:00,
2013-02-26 15:52:00,32.0,31.0,29.43,East,86,0.0,0.0,95,0.04,,,0.50,,2013-02-26 20:52:00,
2013-02-26 16:01:00,32.0,31.0,29.43,East,97,0.0,0.0,95,0.03,,,0.51,,2013-02-26 21:01:00,
2013-02-26 16:11:00,32.0,31.0,29.43,East,97,0.0,0.0,95,0.03,,,0.51,,2013-02-26 21:11:00,
2013-02-26 16:21:00,33.0,32.0,29.43,ENE,74,0.0,0.0,95,0.04,,,0.52,,2013-02-26 21:21:00,
2013-02-26 16:31:00,33.0,32.0,29.42,ENE,67,0.0,0.0,95,0.04,,,0.53,,2013-02-26 21:31:00,
2013-02-26 16:41:00,33.0,32.0,29.42,ENE,67,0.0,0.0,95,0.04,,,0.53,,2013-02-26 21:41:00,
2013-02-26 16:51:00,33.0,32.0,29.42,ENE,61,0.0,0.0,95,0.04,,,0.54,,2013-02-26 21:51:00,
2013-02-26 17:01:00,33.0,32.0,29.41,ENE,67,0.0,0.0,95,0.05,,,0.56,,2013-02-26 22:01:00,
2013-02-26 17:11:00,33.0,32.0,29.42,ENE,59,0.0,0.0,95,0.07,,,0.59,,2013-02-26 22:11:00,
2013-02-26 17:21:00,33.0,32.0,29.42,ENE,59,0.0,0.0,95,0.07,,,0.59,,2013-02-26 22:21:00,
2013-02-26 17:32:00,33.0,32.0,29.42,ENE,59,0.0,0.0,95,0.07,,,0.59,,2013-02-26 22:32:00,
2013-02-26 17:42:00,33.0,32.0,29.42,ENE,59,0.0,0.0,95,0.07,,,0.59,,2013-02-26 22:42:00,
2013-02-26 17:52:00,33.0,32.0,29.42,ESE,110,7.0,14.0,95,0.10,,,0.64,,2013-02-26 22:52:00,
2013-02-26 18:01:00,33.0,32.0,29.42,East,85,5.0,17.0,95,0.09,,,0.64,,2013-02-26 23:01:00,
2013-02-26 18:11:00,33.0,32.0,29.42,East,85,5.0,17.0,95,0.09,,,0.64,,2013-02-26 23:11:00,
2013-02-26 18:21:00,33.0,32.0,29.42,East,83,6.0,12.0,95,0.07,,,0.66,,2013-02-26 23:21:00,
2013-02-26 18:32:00,33.0,32.0,29.43,East,90,7.0,20.0,95,0.04,,,0.67,,2013-02-26 23:32:00,
2013-02-26 18:42:00,33.0,32.0,29.43,East,90,7.0,20.0,95,0.04,,,0.67,,2013-02-26 23:42:00,
2013-02-26 18:52:00,33.0,32.0,29.42,East,99,4.0,11.0,95,0.04,,,0.68,,2013-02-26 23:52:00,
2013-02-26 19:01:00,33.0,32.0,29.43,East,82,3.0,13.0,95,0.05,,,0.69,,2013-02-27 00:01:00,
2013-02-26 19:11:00,33.0,32.0,29.43,East,82,3.0,13.0,95,0.05,,,0.69,,2013-02-27 00:11:00,
2013-02-26 19:22:00,33.0,32.0,29.43,East,82,3.0,13.0,95,0.05,,,0.69,,2013-02-27 00:22:00,
2013-02-26 19:32:00,33.0,32.0,29.43,East,82,3.0,13.0,95,0.05,,,0.69,,2013-02-27 00:32:00,
2013-02-26 19:42:00,33.0,32.0,29.43,East,82,3.0,13.0,95,0.05,,,0.69,,2013-02-27 00:42:00,
2013-02-26 20:01:00,33.0,32.0,29.42,East,92,2.0,10.0,95,0.03,,,0.71,,2013-02-27 01:01:00,
2013-02-26 20:11:00,33.0,32.0,29.42,East,92,2.0,10.0,95,0.03,,,0.71,,2013-02-27 01:11:00,
2013-02-26 20:22:00,33.0,32.0,29.42,East,92,2.0,10.0,95,0.03,,,0.71,,2013-02-27 01:22:00,
2013-02-26 20:32:00,33.0,32.0,29.42,ENE,73,0.0,7.0,95,0.01,,,0.71,,2013-02-27 01:32:00,
2013-02-26 20:42:00,33.0,32.0,29.42,ENE,73,0.0,7.0,95,0.01,,,0.71,,2013-02-27 01:42:00,
2013-02-26 20:52:00,33.0,32.0,29.42,East,90,0.0,6.0,95,0.02,,,0.72,,2013-02-27 01:52:00,
2013-02-26 21:01:00,33.0,32.0,29.42,ENE,69,0.0,6.0,95,0.02,,,0.73,,2013-02-27 02:01:00,
2013-02-26 21:15:00,33.0,32.0,29.42,ENE,69,0.0,6.0,95,0.02,,,0.73,,2013-02-27 02:15:00,
2013-02-26 21:24:00,34.0,33.0,29.42,East,79,3.0,9.0,95,0.03,,,0.74,,2013-02-27 02:24:00,
2013-02-26 21:32:00,34.0,33.0,29.42,East,80,0.0,4.0,96,0.05,,,0.76,,2013-02-27 02:32:00,
2013-02-26 21:42:00,34.0,33.0,29.42,East,80,0.0,4.0,96,0.05,,,0.76,,2013-02-27 02:42:00,
2013-02-26 21:52:00,33.0,32.0,29.42,East,80,0.0,0.0,96,0.05,,,0.77,,2013-02-27 02:52:00,
2013-02-26 22:02:00,33.0,32.0,29.42,East,80,0.0,0.0,96,0.05,,,0.77,,2013-02-27 03:02:00,
2013-02-26 22:11:00,33.0,32.0,29.42,East,80,0.0,0.0,96,0.05,,,0.77,,2013-02-27 03:11:00,
2013-02-26 22:22:00,33.0,32.0,29.42,East,80,0.0,0.0,96,0.05,,,0.77,,2013-02-27 03:22:00,
2013-02-26 22:32:00,33.0,32.0,29.42,East,80,0.0,0.0,96,0.03,,,0.79,,2013-02-27 03:32:00,
2013-02-26 22:42:00,33.0,32.0,29.42,East,80,0.0,0.0,96,0.03,,,0.79,,2013-02-27 03:42:00,
2013-02-26 22:52:00,33.0,32.0,29.42,East,80,0.0,0.0,96,0.02,,,0.79,,2013-02-27 03:52:00,
2013-02-26 23:02:00,33.0,32.0,29.42,East,80,0.0,0.0,96,0.01,,,0.79,,2013-02-27 04:02:00,
2013-02-26 23:11:00,33.0,32.0,29.42,East,80,0.0,0.0,96,0.01,,,0.79,,2013-02-27 04:11:00,
2013-02-26 23:22:00,33.0,32.0,29.41,East,80,0.0,0.0,96,0.02,,,0.80,,2013-02-27 04:22:00,
2013-02-26 23:32:00,33.0,32.0,29.41,WSW,257,0.0,12.0,96,0.01,,,0.80,,2013-02-27 04:32:00,
2013-02-26 23:42:00,33.0,32.0,29.41,WSW,257,0.0,12.0,96,0.01,,,0.80,,2013-02-27 04:42:00,
2013-02-26 23:52:00,33.0,32.0,29.41,WSW,257,0.0,0.0,96,0.01,,,0.80,,2013-02-27 04:52:00,